Total_Precipitation_Accumulation
1.27 1.56 1.61 1.74 1.47 1.43 1.36 1.24 1.06 0.99 0.86 0.75 0.70 0.73 0.81 0.80 0.84 1.02 1.04 1.00 1.03 1.23 1.56 1.72 1.70 1.72 1.68 1.63 1.48 1.32 1.20 1.12 1.01 0.89 0.73 0.61 0.55 0.52 0.54 0.58 0.59 0.56 0.55
1.74 2.09 2.15 2.06 1.81 1.84 1.93 1.92 1.72 1.51 1.30 1.20 1.07 1.04 1.08 1.11 1.21 1.25 1.25 1.18 1.06 1.14 1.44 1.69 1.88 2.05 2.03 1.83 1.59 1.42 1.40 1.35 1.25 1.09 0.95 0.85 0.77 0.72 0.68 0.66 0.65 0.62 0.56
2.20 2.27 2.51 2.46 2.25 2.17 2.13 2.07 2.19 2.16 1.81 1.54 1.41 1.39 1.48 1.46 1.48 1.50 1.54 1.56 1.37 1.25 1.33 1.53 1.71 1.83 1.90 1.89 1.77 1.65 1.64 1.48 1.35 1.21 1.11 1.03 0.95 0.91 0.85 0.78 0.76 0.74 0.70
2.50 2.54 2.56 2.56 2.46 2.42 2.62 2.67 2.57 2.51 2.38 2.13 1.94 1.80 1.74 1.79 1.66 1.60 1.58 1.69 1.76 1.51 1.31 1.29 1.36 1.47 1.68 1.94 2.06 2.09 1.96 1.74 1.56 1.42 1.32 1.21 1.12 1.02 0.93 0.87 0.84 0.85 0.81
2.91 3.01 3.05 3.07 2.92 2.94 2.90 2.76 2.93 2.82 2.72 2.51 2.14 1.94 1.78 1.81 1.73 1.50 1.49 1.60 1.67 1.60 1.52 1.33 1.30 1.39 1.63 1.89 2.07 2.22 2.15 1.95 1.82 1.71 1.62 1.50 1.34 1.18 1.07 1.01 0.99 1.00 0.98
3.70 3.70 3.62 3.60 3.46 3.36 3.21 3.12 3.07 2.86 2.71 2.48 2.08 1.89 1.72 1.57 1.52 1.50 1.35 1.35 1.37 1.28 1.37 1.37 1.37 1.30 1.45 1.63 1.85 2.04 2.05 1.99 1.92 1.79 1.66 1.61 1.51 1.37 1.26 1.19 1.14 1.12 1.12
4.13 3.99 3.87 3.89 3.71 3.53 3.33 3.19 3.08 2.99 2.70 2.45 2.39 2.10 1.68 1.46 1.35 1.27 1.25 1.22 1.15 1.15 1.28 1.30 1.28 1.25 1.26 1.43 1.49 1.64 1.82 1.91 1.95 1.90 1.82 1.77 1.62 1.43 1.34 1.31 1.29 1.27 1.22
4.42 4.22 4.18 4.07 3.83 3.64 3.39 3.17 3.04 3.01 2.78 2.59 2.56 2.47 1.98 1.60 1.27 1.01 1.03 1.06 1.05 1.09 1.11 1.09 1.07 1.09 1.14 1.23 1.27 1.42 1.62 1.79 1.90 1.94 1.89 1.74 1.64 1.52 1.46 1.46 1.45 1.43 1.39
4.77 4.58 4.45 4.17 3.91 3.62 3.35 3.10 2.92 2.86 2.77 2.66 2.50 2.57 2.27 1.85 1.45 1.14 0.97 0.91 0.95 1.04 1.05 1.02 0.98 0.96 1.00 1.10 1.22 1.28 1.34 1.37 1.49 1.60 1.63 1.64 1.62 1.55 1.50 1.51 1.52 1.53 1.56
4.05 3.96 3.89 3.72 3.50 3.23 3.04 2.81 2.63 2.54 2.64 2.54 2.42 2.24 2.09 1.85 1.63 1.36 1.09 0.96 0.95 0.99 1.03 1.00 0.98 0.99 0.99 1.03 1.13 1.22 1.18 1.10 1.16 1.25 1.30 1.29 1.30 1.30 1.33 1.38 1.41 1.45 1.52
3.37 3.15 3.04 2.94 2.81 2.68 2.54 2.47 2.41 2.30 2.27 2.20 2.08 1.99 1.88 1.76 1.54 1.36 1.20 1.06 1.02 1.03 1.04 1.04 1.08 1.07 1.05 1.05 1.01 1.07 1.09 0.99 0.99 1.06 1.08 1.08 1.12 1.20 1.26 1.24 1.23 1.29 1.40
2.74 2.39 2.21 2.10 2.02 1.95 1.96 1.99 2.02 1.98 1.93 1.89 1.85 1.76 1.69 1.67 1.56 1.46 1.29 1.17 1.17 1.11 1.06 1.03 1.02 1.05 1.07 1.05 1.05 1.13 0.97 0.91 0.89 0.90 0.97 1.02 1.06 1.10 1.15 1.20 1.25 1.31 1.36
2.21 1.87 1.68 1.61 1.57 1.55 1.50 1.54 1.58 1.59 1.58 1.58 1.57 1.53 1.55 1.54 1.52 1.49 1.54 1.46 1.24 1.05 0.98 0.98 0.95 0.94 0.95 1.00 1.09 1.15 0.94 0.88 0.88 0.92 0.95 0.94 0.96 1.00 1.05 1.06 1.09 1.14 1.18
1.75 1.52 1.35 1.27 1.17 1.07 1.05 1.12 1.16 1.19 1.21 1.30 1.36 1.42 1.43 1.40 1.39 1.38 1.44 1.52 1.49 1.34 1.15 1.05 1.01 0.99 0.98 1.00 1.12 1.13 0.97 1.05 0.98 0.99 0.97 0.91 0.89 0.88 0.86 0.83 0.83 0.85 0.88
1.23 1.08 0.96 0.88 0.84 0.79 0.79 0.84 0.90 0.92 0.96 1.04 1.13 1.24 1.33 1.39 1.43 1.40 1.41 1.44 1.52 1.52 1.41 1.20 1.13 1.07 1.01 1.02 1.20 0.95 0.95 1.16 1.07 1.00 0.93 0.87 0.82 0.75 0.69 0.64 0.61 0.59 0.58
0.94 0.81 0.69 0.62 0.62 0.64 0.67 0.66 0.70 0.73 0.74 0.80 0.88 0.97 1.09 1.21 1.35 1.42 1.49 1.50 1.49 1.49 1.44 1.24 1.15 1.13 1.05 0.99 1.20 1.00 0.98 1.04 0.92 0.82 0.74 0.70 0.66 0.61 0.58 0.55 0.54 0.53 0.52
0.88 0.77 0.68 0.64 0.62 0.59 0.58 0.60 0.61 0.64 0.69 0.71 0.70 0.75 0.85 0.93 1.06 1.15 1.24 1.27 1.33 1.33 1.34 1.26 1.18 1.16 1.13 1.08 1.06 0.93 0.86 0.82 0.80 0.76 0.64 0.58 0.55 0.50 0.49 0.50 0.51 0.50 0.49
0.69 0.63 0.57 0.57 0.56 0.54 0.54 0.55 0.53 0.51 0.51 0.52 0.54 0.60 0.67 0.70 0.78 0.82 0.91 0.99 1.06 1.12 1.13 1.20 1.24 1.16 1.11 1.07 0.99 0.86 0.69 0.61 0.63 0.68 0.60 0.57 0.55 0.53 0.50 0.50 0.51 0.48 0.45
0.58 0.57 0.53 0.51 0.50 0.50 0.47 0.46 0.46 0.40 0.36 0.38 0.42 0.45 0.49 0.52 0.57 0.58 0.62 0.68 0.76 0.87 1.02 1.11 1.15 1.11 1.05 0.98 0.92 0.77 0.65 0.65 0.52 0.53 0.50 0.50 0.52 0.52 0.49 0.43 0.39 0.37 0.34
0.53 0.54 0.50 0.45 0.39 0.35 0.33 0.36 0.40 0.35 0.31 0.31 0.33 0.36 0.39 0.42 0.44 0.46 0.47 0.52 0.60 0.75 0.90 0.98 0.95 0.93 0.91 0.83 0.82 0.78 0.70 0.61 0.51 0.39 0.37 0.34 0.35 0.34 0.35 0.32 0.29 0.27 0.26
0.46 0.44 0.40 0.38 0.33 0.30 0.29 0.31 0.33 0.32 0.30 0.29 0.27 0.27 0.30 0.35 0.39 0.39 0.39 0.47 0.57 0.70 0.79 0.83 0.82 0.76 0.73 0.74 0.74 0.70 0.65 0.59 0.49 0.37 0.35 0.29 0.27 0.30 0.32 0.31 0.28 0.23 0.17
0.42 0.40 0.36 0.35 0.33 0.28 0.29 0.29 0.28 0.32 0.35 0.35 0.30 0.26 0.26 0.26 0.29 0.32 0.35 0.42 0.51 0.58 0.63 0.66 0.66 0.68 0.66 0.64 0.68 0.66 0.64 0.64 0.60 0.45 0.42 0.34 0.26 0.33 0.35 0.31 0.25 0.18 0.15
0.43 0.39 0.35 0.34 0.36 0.33 0.29 0.26 0.27 0.34 0.38 0.38 0.36 0.34 0.28 0.24 0.30 0.33 0.34 0.36 0.41 0.43 0.49 0.58 0.64 0.64 0.63 0.67 0.76 0.75 0.73 0.70 0.65 0.51 0.52 0.50 0.38 0.39 0.29 0.22 0.21 0.17 0.14
0.45 0.42 0.38 0.37 0.36 0.32 0.30 0.28 0.28 0.31 0.39 0.38 0.36 0.36 0.37 0.37 0.34 0.33 0.30 0.32 0.37 0.42 0.47 0.51 0.63 0.64 0.59 0.63 0.74 0.77 0.73 0.67 0.64 0.59 0.60 0.62 0.46 0.39 0.27 0.34 0.31 0.22 0.16
0.45 0.39 0.38 0.37 0.38 0.35 0.30 0.28 0.29 0.32 0.36 0.31 0.28 0.31 0.32 0.34 0.33 0.35 0.34 0.37 0.39 0.43 0.42 0.49 0.55 0.59 0.64 0.67 0.67 0.68 0.75 0.83 0.80 0.70 0.65 0.67 0.57 0.45 0.36 0.42 0.39 0.28 0.25
0.44 0.37 0.37 0.39 0.40 0.40 0.33 0.29 0.30 0.28 0.30 0.27 0.26 0.28 0.29 0.26 0.25 0.26 0.29 0.39 0.49 0.47 0.43 0.48 0.64 0.81 0.87 0.84 0.74 0.73 0.82 0.87 0.87 0.89 0.75 0.71 0.69 0.56 0.52 0.43 0.42 0.44 0.47